C/2022 E3 ( ZTF )

Japanese version
Home page
Updated on April 11, 2024

---------------------------------------------------------------------

* Profile

Discovery Date March 2, 2022
Magnitude 17.2 mag
Discoverer Zwicky Transient Facility (ZTF)

* Pictures

* Orbital Elements

Epoch 2024 Mar. 31.0 TT = JDT 2460400.5
T 2023 Jan. 12.72861 TT                                 Rudenko
q   1.1124279            (2000.0)            P               Q
z  -0.0000772      Peri.  145.81033     -0.60058281     -0.07340704
 +/-0.0000002      Node   302.55039     +0.33749862     +0.87944434
e   1.0000858      Incl.  109.16828     +0.72484134     -0.47030742
>From 8225 observations 2021 July 10-2024 Jan. 12, mean residual 0".6.

* Finding Charts

* Magnitudes Graph

        m1 = -2.0 + 5 log d + 25   log r  [    ,-288]  (             - 2022 Mar. 30)
        m1 =  7.0 + 5 log d + 10.0 log r  [-288,    ]  (2022 Mar. 30 -             )

---------------------------------------------------------------------

The orbital elements are published on M.P.E.C. 2024-F34.
The charts are made with StellaNavigator Ver.10 (AstroArts).
The magnitudes graphs are made with Comet for Windows.

---------------------------------------------------------------------

Copyright(C) Seiichi Yoshida (comet@aerith.net). All rights reserved.